TimeCDT,TemperatureF,Dew PointF,Humidity,Sea Level PressureIn,VisibilityMPH,Wind Direction,Wind SpeedMPH,Gust SpeedMPH,PrecipitationIn,Events,Conditions,WindDirDegrees,DateUTC
12:54 AM,62.1,54.0,75,30.21,10.0,SE,5.8,-,N/A,,Partly Cloudy,130,2013-08-24 05:54:00
1:54 AM,61.0,54.0,78,30.21,10.0,East,3.5,-,N/A,,Partly Cloudy,80,2013-08-24 06:54:00
2:54 AM,59.0,54.0,83,30.21,10.0,Calm,Calm,-,N/A,,Clear,0,2013-08-24 07:54:00
3:54 AM,59.0,55.0,87,30.22,10.0,SE,5.8,-,N/A,,Clear,130,2013-08-24 08:54:00
4:54 AM,60.1,55.9,86,30.23,10.0,ESE,3.5,-,N/A,,Partly Cloudy,120,2013-08-24 09:54:00
5:54 AM,59.0,57.0,93,30.25,10.0,Calm,Calm,-,N/A,,Partly Cloudy,0,2013-08-24 10:54:00
6:54 AM,61.0,57.9,90,30.27,10.0,Calm,Calm,-,N/A,,Scattered Clouds,0,2013-08-24 11:54:00
7:54 AM,64.9,60.1,84,30.27,10.0,Calm,Calm,-,N/A,,Partly Cloudy,0,2013-08-24 12:54:00
8:54 AM,69.1,60.1,73,30.27,10.0,SSE,8.1,-,N/A,,Clear,150,2013-08-24 13:54:00
9:54 AM,73.9,62.1,66,30.27,10.0,South,4.6,-,N/A,,Clear,170,2013-08-24 14:54:00
10:54 AM,77.0,64.0,64,30.26,10.0,SSE,8.1,-,N/A,,Clear,160,2013-08-24 15:54:00
11:54 AM,80.1,64.9,60,30.25,10.0,SSE,10.4,-,N/A,,Partly Cloudy,160,2013-08-24 16:54:00
12:54 PM,82.0,64.9,56,30.24,10.0,SSW,10.4,-,N/A,,Scattered Clouds,210,2013-08-24 17:54:00
1:54 PM,82.9,64.0,53,30.23,10.0,SW,11.5,-,N/A,,Scattered Clouds,220,2013-08-24 18:54:00
2:54 PM,84.0,64.9,53,30.22,10.0,South,11.5,-,N/A,,Scattered Clouds,180,2013-08-24 19:54:00
3:54 PM,84.0,66.0,55,30.20,10.0,South,12.7,-,N/A,,Scattered Clouds,170,2013-08-24 20:54:00
4:54 PM,82.9,66.0,56,30.19,10.0,South,11.5,-,N/A,,Scattered Clouds,180,2013-08-24 21:54:00
5:54 PM,82.0,66.0,58,30.19,10.0,SSE,9.2,-,N/A,,Partly Cloudy,160,2013-08-24 22:54:00
6:54 PM,80.1,66.9,64,30.18,10.0,SSE,8.1,-,N/A,,Partly Cloudy,160,2013-08-24 23:54:00
7:54 PM,77.0,66.9,71,30.19,10.0,SSE,8.1,-,N/A,,Scattered Clouds,160,2013-08-25 00:54:00
8:54 PM,73.9,66.9,79,30.20,10.0,SSE,5.8,-,N/A,,Mostly Cloudy,160,2013-08-25 01:54:00
9:54 PM,73.0,66.9,81,30.21,10.0,SSE,8.1,-,N/A,,Scattered Clouds,160,2013-08-25 02:54:00
10:54 PM,72.0,64.9,78,30.20,10.0,SSE,9.2,-,N/A,,Mostly Cloudy,160,2013-08-25 03:54:00
11:54 PM,71.1,64.0,78,30.20,10.0,SSE,11.5,-,N/A,,Mostly Cloudy,160,2013-08-25 04:54:00